TimeMDT,TemperatureF,Dew PointF,Humidity,Sea Level PressureIn,VisibilityMPH,Wind Direction,Wind SpeedMPH,Gust SpeedMPH,PrecipitationIn,Events,Conditions,WindDirDegrees,DateUTC
12:53 AM,59.0,25.0,27,29.83,10.0,SW,15.0,-,N/A,,Clear,220,2012-10-03 06:53:00
1:53 AM,59.0,26.1,28,29.81,10.0,SSW,12.7,-,N/A,,Clear,210,2012-10-03 07:53:00
2:53 AM,57.0,30.0,36,29.81,10.0,SSW,11.5,-,N/A,,Clear,210,2012-10-03 08:53:00
3:53 AM,55.4,28.4,36,29.96,10.0,SW,18.4,-,N/A,,Clear,230,2012-10-03 09:53:00
4:53 AM,54.0,28.9,38,29.85,10.0,SW,12.7,20.7,N/A,,Clear,220,2012-10-03 10:53:00
5:53 AM,52.0,27.0,38,29.88,10.0,SW,20.7,29.9,N/A,,Clear,230,2012-10-03 11:53:00
6:53 AM,50.0,19.9,31,29.92,10.0,SW,23.0,32.2,N/A,,Clear,230,2012-10-03 12:53:00
7:53 AM,46.9,19.0,33,29.97,8.0,WSW,21.9,31.1,N/A,,Clear,250,2012-10-03 13:53:00
8:53 AM,48.0,21.0,34,30.04,6.0,West,17.3,27.6,N/A,,Haze,270,2012-10-03 14:53:00
9:53 AM,48.9,21.9,35,30.10,8.0,WSW,21.9,26.5,N/A,,Clear,250,2012-10-03 15:53:00
10:53 AM,51.1,21.0,31,30.12,9.0,West,16.1,-,N/A,,Clear,260,2012-10-03 16:53:00
11:53 AM,53.1,19.9,27,30.14,10.0,Variable,3.5,-,N/A,,Clear,0,2012-10-03 17:53:00
12:53 PM,57.0,21.0,25,30.14,10.0,NNE,12.7,24.2,N/A,,Clear,20,2012-10-03 18:53:00
1:53 PM,57.0,12.9,18,30.14,10.0,NNE,13.8,21.9,N/A,,Clear,30,2012-10-03 19:53:00
2:53 PM,59.0,12.0,16,30.14,10.0,North,15.0,-,N/A,,Clear,10,2012-10-03 20:53:00
3:53 PM,57.9,12.9,17,30.16,10.0,North,11.5,24.2,N/A,,Clear,10,2012-10-03 21:53:00
4:53 PM,57.9,12.0,16,30.16,10.0,NNE,11.5,20.7,N/A,,Clear,30,2012-10-03 22:53:00
5:53 PM,55.9,12.0,18,30.17,10.0,NE,13.8,19.6,N/A,,Clear,40,2012-10-03 23:53:00
6:53 PM,51.1,16.0,25,30.19,10.0,NNE,9.2,-,N/A,,Clear,30,2012-10-04 00:53:00
7:53 PM,45.0,18.0,34,30.23,10.0,NE,6.9,-,N/A,,Clear,40,2012-10-04 01:53:00
8:53 PM,37.9,17.1,43,30.25,10.0,ENE,6.9,-,N/A,,Clear,60,2012-10-04 02:53:00
9:53 PM,41.0,17.1,38,30.24,10.0,NE,9.2,-,N/A,,Clear,40,2012-10-04 03:53:00
10:53 PM,39.0,19.0,45,30.25,10.0,East,5.8,-,N/A,,Clear,80,2012-10-04 04:53:00
11:53 PM,39.0,19.0,45,30.24,10.0,NE,5.8,-,N/A,,Clear,50,2012-10-04 05:53:00